When you browse on this site, cookies collect data to enhance your experience and personalize the content and advertising you see.
Visit our Privacy Policy to learn more. By continuing to use the site, you agree to this use of cookies and data.
  • en France
  • Liste des pays
  • À 7 jours
  • Température de l'eau
  • Carte satellitaire
  • Carte météo
  • Widgets météo
  • user-avatar
    Se connecter

    Météo par heure à Tebessa

    Ce jour, 19 Janvier, Samedi

    Heure Température Précipitation Vent Pression Humidité
    00:00 +4°C° 0 mm 0 m/s 683 mmHg 81%
    01:00 +4°C° 0 mm 0 m/s 683 mmHg 82%
    02:00 +4°C° 0 mm 0 m/s 682 mmHg 82%
    03:00 +3°C° 0 mm 0 m/s 682 mmHg 83%
    04:00 +3°C° 0 mm 0 m/s 682 mmHg 83%
    05:00 +3°C° 0 mm 0 m/s 682 mmHg 83%
    06:00 +4°C° 0 mm 1 m/s 682 mmHg 83%
    07:00 +3°C° 0 mm 1 m/s 682 mmHg 82%
    08:00 +5°C° 0 mm 1 m/s 682 mmHg 74%
    09:00 +7°C° 0 mm 1 m/s 682 mmHg 66%
    10:00 +8°C° 0 mm 1 m/s 683 mmHg 57%
    11:00 +9°C° 0 mm 1 m/s 683 mmHg 53%
    12:00 +9°C° 0 mm 2 m/s 683 mmHg 48%
    13:00 +10°C° 0 mm 2 m/s 682 mmHg 44%
    14:00 +10°C° 0 mm 2 m/s 682 mmHg 44%
    15:00 +10°C° 0 mm 2 m/s 682 mmHg 43%
    16:00 +11°C° 0 mm 3 m/s 682 mmHg 43%
    17:00 +10°C° 0.3 mm 3 m/s 682 mmHg 49%
    18:00 +9°C° 0.3 mm 3 m/s 682 mmHg 56%
    19:00 +8°C° 0.3 mm 3 m/s 682 mmHg 62%
    20:00 +8°C° 0.3 mm 3 m/s 682 mmHg 67%
    21:00 +7°C° 0.3 mm 2 m/s 682 mmHg 72%
    22:00 +7°C° 0.3 mm 1 m/s 682 mmHg 76%
    23:00 +7°C° 0 mm 1 m/s 682 mmHg 81%

    Demain, 20 Janvier, Dimanche

    Heure Température Précipitation Vent Pression Humidité
    00:00 +6°C° 0 mm 1 m/s 682 mmHg 85%
    01:00 +5°C° 0 mm 1 m/s 682 mmHg 90%
    02:00 +5°C° 0 mm 1 m/s 681 mmHg 91%
    03:00 +4°C° 0 mm 0 m/s 681 mmHg 92%
    04:00 +3°C° 0 mm 0 m/s 681 mmHg 93%
    05:00 +4°C° 0 mm 1 m/s 681 mmHg 92%
    06:00 +4°C° 0 mm 1 m/s 681 mmHg 90%
    07:00 +4°C° 0 mm 1 m/s 681 mmHg 89%
    08:00 +4°C° 0 mm 2 m/s 681 mmHg 82%
    09:00 +6°C° 0 mm 2 m/s 682 mmHg 75%
    10:00 +7°C° 0 mm 3 m/s 682 mmHg 68%
    11:00 +7°C° 0 mm 4 m/s 682 mmHg 59%
    12:00 +8°C° 0 mm 5 m/s 682 mmHg 50%
    13:00 +9°C° 0 mm 6 m/s 681 mmHg 41%
    14:00 +9°C° 0 mm 7 m/s 681 mmHg 43%
    15:00 +9°C° 0 mm 7 m/s 680 mmHg 46%
    16:00 +8°C° 0 mm 7 m/s 680 mmHg 48%
    17:00 +8°C° 0.1 mm 7 m/s 680 mmHg 55%
    18:00 +6°C° 0.1 mm 7 m/s 680 mmHg 62%
    19:00 +5°C° 0.1 mm 7 m/s 679 mmHg 69%
    20:00 +5°C° 0.5 mm 6 m/s 679 mmHg 72%
    21:00 +4°C° 0.5 mm 6 m/s 679 mmHg 75%
    22:00 +5°C° 0.5 mm 5 m/s 679 mmHg 79%
    23:00 +5°C° 0 mm 5 m/s 679 mmHg 82%

    Après-demain, 21 Janvier, Lundi

    Heure Température Précipitation Vent Pression Humidité
    00:00 +5°C° 0 mm 5 m/s 679 mmHg 85%
    01:00 +4°C° 0 mm 4 m/s 678 mmHg 88%
    02:00 +4°C° 0 mm 4 m/s 678 mmHg 89%
    03:00 +4°C° 0 mm 4 m/s 678 mmHg 90%
    04:00 +4°C° 0 mm 4 m/s 677 mmHg 91%
    05:00 +4°C° 0 mm 3 m/s 677 mmHg 91%
    06:00 +4°C° 0 mm 3 m/s 677 mmHg 90%
    07:00 +4°C° 0 mm 3 m/s 677 mmHg 90%
    08:00 +5°C° 0 mm 3 m/s 678 mmHg 85%
    09:00 +6°C° 0 mm 4 m/s 678 mmHg 80%
    10:00 +7°C° 0 mm 4 m/s 679 mmHg 74%
    11:00 +8°C° 0 mm 4 m/s 678 mmHg 71%
    12:00 +8°C° 0 mm 4 m/s 678 mmHg 67%
    13:00 +10°C° 0 mm 4 m/s 678 mmHg 63%
    14:00 +10°C° 0 mm 4 m/s 678 mmHg 60%
    15:00 +10°C° 0 mm 4 m/s 678 mmHg 57%
    16:00 +11°C° 0 mm 4 m/s 677 mmHg 55%
    17:00 +10°C° 0 mm 4 m/s 678 mmHg 59%
    18:00 +8°C° 0 mm 4 m/s 678 mmHg 63%
    19:00 +8°C° 0 mm 3 m/s 678 mmHg 68%
    20:00 +6°C° 0.3 mm 5 m/s 678 mmHg 74%
    21:00 +5°C° 0.3 mm 7 m/s 679 mmHg 81%
    22:00 +4°C° 0.3 mm 8 m/s 679 mmHg 88%
    23:00 +4°C° 0.5 mm 8 m/s 679 mmHg 87%

    22 Janvier, Mardi

    Heure Température Précipitation Vent Pression Humidité
    00:00 +2°C° 0.5 mm 8 m/s 679 mmHg 86%
    01:00 +2°C° 0.5 mm 8 m/s 679 mmHg 85%
    02:00 +2°C° 0.2 mm 8 m/s 679 mmHg 85%
    03:00 +1°C° 0.2 mm 8 m/s 679 mmHg 85%
    04:00 +1°C° 0.2 mm 9 m/s 679 mmHg 85%
    05:00 +1°C° 0.1 mm 9 m/s 679 mmHg 84%
    06:00 +1°C° 0.1 mm 9 m/s 679 mmHg 84%
    07:00 +1°C° 0.1 mm 9 m/s 679 mmHg 84%
    08:00 +1°C° 0 mm 9 m/s 680 mmHg 81%
    09:00 +1°C° 0 mm 9 m/s 680 mmHg 78%
    10:00 +2°C° 0 mm 9 m/s 680 mmHg 75%
    11:00 +2°C° 0 mm 9 m/s 680 mmHg 71%
    12:00 +3°C° 0 mm 9 m/s 680 mmHg 66%
    13:00 +4°C° 0 mm 8 m/s 680 mmHg 61%
    14:00 +4°C° 0 mm 8 m/s 679 mmHg 59%
    15:00 +4°C° 0 mm 8 m/s 679 mmHg 58%
    16:00 +5°C° 0 mm 7 m/s 679 mmHg 56%
    17:00 +4°C° 0 mm 6 m/s 678 mmHg 60%
    18:00 +4°C° 0 mm 4 m/s 678 mmHg 64%
    19:00 +4°C° 0 mm 2 m/s 678 mmHg 68%
    20:00 +3°C° 0 mm 3 m/s 678 mmHg 68%
    21:00 +3°C° 0 mm 3 m/s 678 mmHg 68%
    22:00 +2°C° 0 mm 3 m/s 678 mmHg 68%
    23:00 +2°C° 0 mm 3 m/s 677 mmHg 73%

    23 Janvier, Mercredi

    Heure Température Précipitation Vent Pression Humidité
    00:00 +1°C° 0 mm 4 m/s 676 mmHg 77%
    01:00 +1°C° 0 mm 4 m/s 675 mmHg 82%
    02:00 0°C° 0 mm 5 m/s 674 mmHg 77%
    03:00 -1°C° 0 mm 6 m/s 674 mmHg 73%
    04:00 -1°C° 0 mm 6 m/s 673 mmHg 68%
    05:00 -1°C° 0 mm 7 m/s 672 mmHg 71%
    06:00 -1°C° 0 mm 8 m/s 672 mmHg 75%
    07:00 -1°C° 0 mm 9 m/s 671 mmHg 78%
    08:00 0°C° 0.2 mm 9 m/s 671 mmHg 77%
    09:00 +1°C° 0.2 mm 9 m/s 671 mmHg 75%
    10:00 +1°C° 0.2 mm 9 m/s 671 mmHg 74%
    11:00 +1°C° 0.6 mm 9 m/s 670 mmHg 76%
    12:00 +1°C° 0.6 mm 9 m/s 670 mmHg 77%
    13:00 +1°C° 0.6 mm 8 m/s 669 mmHg 79%
    14:00 +1°C° 0.6 mm 9 m/s 669 mmHg 77%
    15:00 0°C° 0.6 mm 9 m/s 669 mmHg 74%
    16:00 0°C° 0.6 mm 9 m/s 668 mmHg 72%
    17:00 -1°C° 0 mm 9 m/s 668 mmHg 71%
    18:00 -1°C° 0 mm 9 m/s 669 mmHg 69%
    19:00 -3°C° 0 mm 9 m/s 669 mmHg 67%
    20:00 -4°C° 0 mm 9 m/s 669 mmHg 71%
    21:00 -4°C° 0 mm 8 m/s 669 mmHg 74%
    22:00 -4°C° 0 mm 8 m/s 669 mmHg 78%
    23:00 -3°C° 0 mm 7 m/s 669 mmHg 76%

    24 Janvier, Jeudi

    Heure Température Précipitation Vent Pression Humidité
    00:00 -3°C° 0 mm 7 m/s 669 mmHg 75%
    01:00 -3°C° 0 mm 7 m/s 669 mmHg 73%
    02:00 -3°C° 0.1 mm 6 m/s 669 mmHg 77%
    03:00 -2°C° 0.1 mm 5 m/s 669 mmHg 80%
    04:00 -2°C° 0.1 mm 5 m/s 668 mmHg 84%
    05:00 -2°C° 0.2 mm 5 m/s 668 mmHg 84%
    06:00 -2°C° 0.2 mm 5 m/s 669 mmHg 84%
    07:00 -2°C° 0.2 mm 5 m/s 669 mmHg 84%
    08:00 -3°C° 0 mm 6 m/s 669 mmHg 78%
    09:00 -3°C° 0 mm 7 m/s 669 mmHg 72%
    10:00 -2°C° 0 mm 8 m/s 670 mmHg 65%
    11:00 -3°C° 0 mm 9 m/s 670 mmHg 61%
    12:00 -1°C° 0 mm 9 m/s 669 mmHg 57%
    13:00 0°C° 0 mm 10 m/s 669 mmHg 53%
    14:00 0°C° 0 mm 10 m/s 669 mmHg 59%
    15:00 0°C° 0 mm 10 m/s 669 mmHg 66%
    16:00 0°C° 0 mm 10 m/s 669 mmHg 72%
    17:00 -1°C° 0 mm 9 m/s 670 mmHg 78%
    18:00 -1°C° 0 mm 8 m/s 670 mmHg 84%
    19:00 -2°C° 0 mm 7 m/s 671 mmHg 90%
    20:00 -2°C° 0 mm 8 m/s 671 mmHg 89%
    21:00 -2°C° 0 mm 8 m/s 671 mmHg 89%
    22:00 -3°C° 0 mm 9 m/s 672 mmHg 88%
    23:00 -3°C° 0.2 mm 9 m/s 672 mmHg 88%
    Voir plus